Radiation Dose at Monitoring Post of Fukushima Daini Nuclear Power Station
Date,Time,MP-1(microSv/h),MP-2(microSv/h),MP-3(microSv/h),MP-4(microSv/h),MP-5(microSv/h),MP-6(microSv/h),MP-7(microSv/h),Wind Direction,Wind Velocity(m/s),Rain
2017/08/14,00:00,0.348,0.213,0.347,0.328,0.316,0.171,0.108,north-northwest,2.8,No
2017/08/14,00:10,0.346,0.216,0.353,0.324,0.319,0.171,0.109,north,3.6,No
2017/08/14,00:20,0.352,0.214,0.351,0.326,0.317,0.171,0.109,north-northwest,3.9,No
2017/08/14,00:30,0.348,0.214,0.348,0.328,0.315,0.171,0.108,north-northwest,3.4,No
2017/08/14,00:40,0.348,0.214,0.353,0.326,0.319,0.171,0.108,north-northwest,3.4,No
2017/08/14,00:50,0.351,0.214,0.351,0.327,0.315,0.171,0.109,north,2.6,No
2017/08/14,01:00,0.349,0.213,0.349,0.328,0.317,0.172,0.108,north,3.5,No
2017/08/14,01:10,0.346,0.215,0.352,0.325,0.321,0.172,0.109,north,4.4,No
2017/08/14,01:20,0.351,0.214,0.351,0.326,0.317,0.170,0.108,north-northwest,4.0,Yes
2017/08/14,01:30,0.351,0.214,0.348,0.327,0.317,0.172,0.108,north-northwest,3.1,Yes
2017/08/14,01:40,0.347,0.216,0.353,0.325,0.320,0.171,0.109,north,2.8,Yes
2017/08/14,01:50,0.351,0.212,0.350,0.327,0.317,0.171,0.110,north,2.5,Yes
2017/08/14,02:00,0.352,0.214,0.348,0.329,0.317,0.173,0.108,north,3.1,Yes
2017/08/14,02:10,0.346,0.215,0.353,0.325,0.319,0.171,0.110,north,3.6,Yes
2017/08/14,02:20,0.350,0.213,0.351,0.328,0.316,0.171,0.110,north,3.7,No
2017/08/14,02:30,0.351,0.215,0.349,0.327,0.318,0.172,0.109,north-northwest,2.8,Yes
2017/08/14,02:40,0.347,0.216,0.353,0.325,0.319,0.171,0.109,north-northwest,4.5,Yes
2017/08/14,02:50,0.350,0.215,0.351,0.329,0.316,0.171,0.110,north,4.3,Yes
2017/08/14,03:00,0.351,0.214,0.349,0.327,0.317,0.171,0.109,north-northwest,4.4,Yes
2017/08/14,03:10,0.347,0.215,0.352,0.324,0.318,0.172,0.109,north-northwest,3.5,Yes
2017/08/14,03:20,0.349,0.213,0.350,0.327,0.316,0.170,0.109,north,3.3,Yes
2017/08/14,03:30,0.351,0.215,0.349,0.325,0.318,0.172,0.108,north,3.9,Yes
2017/08/14,03:40,0.348,0.215,0.352,0.325,0.319,0.172,0.109,north,3.3,Yes
2017/08/14,03:50,0.350,0.213,0.350,0.331,0.318,0.172,0.109,north,3.9,Yes
2017/08/14,04:00,0.352,0.215,0.350,0.330,0.319,0.173,0.110,north,3.6,Yes
2017/08/14,04:10,0.349,0.215,0.353,0.327,0.321,0.173,0.111,north,3.3,Yes
2017/08/14,04:20,0.349,0.214,0.351,0.330,0.316,0.172,0.110,north,3.6,No
2017/08/14,04:30,0.353,0.216,0.350,0.328,0.319,0.173,0.109,north,4.5,Yes
2017/08/14,04:40,0.347,0.214,0.352,0.326,0.319,0.173,0.111,north,4.5,Yes
2017/08/14,04:50,0.348,0.214,0.350,0.330,0.317,0.171,0.109,north,4.2,Yes
2017/08/14,05:00,0.351,0.215,0.349,0.327,0.318,0.173,0.110,north,4.5,Yes
2017/08/14,05:10,0.348,0.214,0.352,0.325,0.318,0.171,0.109,north,4.2,Yes
2017/08/14,05:20,0.348,0.214,0.348,0.328,0.315,0.170,0.109,north,4.4,Yes
2017/08/14,05:30,0.352,0.214,0.350,0.327,0.318,0.172,0.109,north,3.7,Yes
2017/08/14,05:40,0.348,0.214,0.352,0.325,0.318,0.173,0.109,north,4.2,Yes
2017/08/14,05:50,0.348,0.214,0.349,0.327,0.314,0.171,0.108,north,4.0,Yes
2017/08/14,06:00,0.352,0.217,0.349,0.325,0.320,0.172,0.110,north,3.3,Yes
2017/08/14,06:10,0.348,0.215,0.352,0.326,0.317,0.172,0.110,north,3.3,Yes
2017/08/14,06:20,0.348,0.216,0.351,0.328,0.316,0.173,0.109,north,1.9,Yes
2017/08/14,06:30,0.352,0.217,0.350,0.325,0.321,0.173,0.111,north-northeast,2.4,Yes
2017/08/14,06:40,0.347,0.215,0.353,0.326,0.318,0.175,0.111,north-northeast,2.2,Yes
2017/08/14,06:50,0.349,0.217,0.349,0.329,0.314,0.173,0.110,north,2.1,Yes
2017/08/14,07:00,0.350,0.216,0.353,0.326,0.320,0.173,0.111,north,1.5,Yes
2017/08/14,07:10,0.347,0.214,0.351,0.324,0.318,0.173,0.111,north-northwest,1.6,Yes
2017/08/14,07:20,0.347,0.216,0.347,0.327,0.314,0.171,0.110,north,1.6,Yes
2017/08/14,07:30,0.350,0.215,0.351,0.323,0.319,0.171,0.110,north-northwest,1.6,Yes
2017/08/14,07:40,0.347,0.213,0.351,0.325,0.316,0.174,0.110,north-northwest,1.8,Yes
2017/08/14,07:50,0.347,0.216,0.346,0.327,0.314,0.172,0.109,north,1.7,Yes
2017/08/14,08:00,0.350,0.216,0.349,0.324,0.318,0.171,0.109,north,1.7,Yes
2017/08/14,08:10,0.345,0.212,0.350,0.324,0.315,0.174,0.109,north,1.5,Yes
2017/08/14,08:20,0.345,0.215,0.345,0.328,0.313,0.171,0.109,north,0.9,No
2017/08/14,08:30,0.348,0.213,0.347,0.324,0.317,0.170,0.109,north,1.4,No
2017/08/14,08:40,0.344,0.212,0.349,0.324,0.318,0.170,0.109,north,1.3,No
2017/08/14,08:50,0.345,0.214,0.346,0.325,0.313,0.172,0.107,north,0.9,No
2017/08/14,09:00,0.348,0.212,0.348,0.323,0.314,0.171,0.108,east-northeast,0.6,No
2017/08/14,09:10,0.346,0.212,0.348,0.322,0.318,0.170,0.108,-,CALM,No
2017/08/14,09:20,0.342,0.212,0.345,0.325,0.314,0.171,0.107,northwest,0.5,Yes
2017/08/14,09:30,0.347,0.213,0.345,0.322,0.312,0.170,0.106,northeast,1.4,Yes
2017/08/14,09:40,0.346,0.209,0.349,0.320,0.315,0.169,0.108,east-northeast,1.7,Yes
2017/08/14,09:50,0.344,0.210,0.346,0.323,0.315,0.168,0.108,east-northeast,0.9,Yes
2017/08/14,10:00,0.343,0.211,0.344,0.322,0.312,0.169,0.106,northeast,1.0,Yes
2017/08/14,10:10,0.347,0.211,0.348,0.320,0.311,0.169,0.106,east-southeast,0.7,No
2017/08/14,10:20,0.345,0.211,0.348,0.320,0.316,0.169,0.108,east,0.9,No
2017/08/14,10:30,0.345,0.210,0.344,0.323,0.314,0.167,0.107,northeast,2.5,Yes
2017/08/14,10:40,0.341,0.209,0.342,0.322,0.313,0.168,0.107,east-northeast,1.7,Yes
2017/08/14,10:50,0.347,0.212,0.348,0.321,0.310,0.170,0.106,east-northeast,1.9,Yes
2017/08/14,11:00,0.346,0.213,0.347,0.321,0.312,0.169,0.107,east-northeast,1.7,Yes
2017/08/14,11:10,0.343,0.211,0.345,0.325,0.316,0.168,0.108,east-northeast,1.6,Yes
2017/08/14,11:20,0.342,0.209,0.342,0.322,0.314,0.168,0.107,east-northeast,1.2,Yes
2017/08/14,11:30,0.348,0.211,0.347,0.320,0.313,0.169,0.107,northeast,2.3,Yes
2017/08/14,11:40,0.345,0.212,0.348,0.324,0.310,0.170,0.107,northeast,1.6,Yes
2017/08/14,11:50,0.344,0.212,0.345,0.326,0.315,0.170,0.108,northeast,1.9,Yes
2017/08/14,12:00,0.344,0.210,0.344,0.321,0.317,0.170,0.108,northeast,2.3,No
2017/08/14,12:10,0.347,0.213,0.348,0.321,0.314,0.170,0.107,northeast,2.4,No
2017/08/14,12:20,0.348,0.213,0.347,0.324,0.311,0.171,0.109,northeast,3.2,No
2017/08/14,12:30,0.343,0.211,0.344,0.323,0.315,0.170,0.108,northeast,3.1,No
2017/08/14,12:40,0.345,0.210,0.342,0.321,0.316,0.170,0.107,northeast,2.5,No
2017/08/14,12:50,0.347,0.210,0.349,0.319,0.314,0.168,0.107,northeast,2.6,No
2017/08/14,13:00,0.343,0.213,0.346,0.324,0.313,0.169,0.106,northeast,2.7,No
2017/08/14,13:10,0.343,0.213,0.344,0.323,0.310,0.169,0.107,northeast,2.9,No
2017/08/14,13:20,0.346,0.212,0.343,0.322,0.313,0.169,0.107,northeast,2.9,No
2017/08/14,13:30,0.347,0.211,0.346,0.319,0.317,0.169,0.108,north-northeast,3.0,No
2017/08/14,13:40,0.345,0.210,0.349,0.320,0.317,0.170,0.106,northeast,3.1,No
2017/08/14,13:50,0.343,0.210,0.345,0.324,0.313,0.168,0.105,northeast,3.6,Yes
2017/08/14,14:00,0.344,0.212,0.344,0.323,0.312,0.169,0.106,northeast,3.6,No
2017/08/14,14:10,0.348,0.211,0.343,0.320,0.310,0.169,0.106,northeast,4.1,No
2017/08/14,14:20,0.346,0.212,0.346,0.320,0.313,0.171,0.107,northeast,3.3,No
2017/08/14,14:30,0.344,0.212,0.349,0.322,0.317,0.170,0.107,northeast,3.4,No
2017/08/14,14:40,0.345,0.209,0.346,0.323,0.314,0.170,0.107,northeast,3.1,No
2017/08/14,14:50,0.348,0.213,0.343,0.324,0.312,0.169,0.107,northeast,2.7,No
2017/08/14,15:00,0.347,0.212,0.345,0.321,0.312,0.170,0.107,northeast,3.0,No
2017/08/14,15:10,0.344,0.211,0.348,0.320,0.315,0.169,0.107,north-northeast,2.9,No
2017/08/14,15:20,0.345,0.210,0.346,0.325,0.318,0.170,0.106,north-northeast,2.8,No
2017/08/14,15:30,0.347,0.212,0.343,0.323,0.315,0.169,0.106,northeast,3.2,No
2017/08/14,15:40,0.347,0.212,0.346,0.321,0.311,0.169,0.107,north-northeast,2.8,No
2017/08/14,15:50,0.344,0.211,0.348,0.324,0.314,0.170,0.108,northeast,3.2,Yes
2017/08/14,16:00,0.348,0.212,0.345,0.326,0.315,0.170,0.107,northeast,3.1,Yes
2017/08/14,16:10,0.349,0.214,0.346,0.323,0.314,0.169,0.108,north-northeast,2.7,Yes
2017/08/14,16:20,0.346,0.212,0.351,0.323,0.316,0.171,0.109,north-northeast,3.1,Yes
2017/08/14,16:30,0.348,0.213,0.347,0.328,0.320,0.172,0.109,northeast,2.6,Yes
2017/08/14,16:40,0.350,0.215,0.346,0.325,0.316,0.171,0.109,northeast,2.1,Yes
2017/08/14,16:50,0.346,0.214,0.349,0.323,0.315,0.171,0.111,north-northeast,1.2,Yes
2017/08/14,17:00,0.344,0.214,0.344,0.324,0.318,0.174,0.111,northeast,2.5,Yes
2017/08/14,17:10,0.347,0.215,0.341,0.321,0.316,0.174,0.111,east-northeast,2.3,Yes
2017/08/14,17:20,0.344,0.213,0.345,0.321,0.313,0.172,0.113,east-northeast,2.5,Yes
2017/08/14,17:30,0.344,0.214,0.343,0.324,0.318,0.173,0.111,east-northeast,2.2,No
2017/08/14,17:40,0.346,0.213,0.342,0.321,0.315,0.171,0.111,east-northeast,2.3,No
2017/08/14,17:50,0.342,0.212,0.346,0.320,0.314,0.170,0.110,east-northeast,2.0,No
2017/08/14,18:00,0.345,0.213,0.343,0.324,0.317,0.171,0.108,east-northeast,1.6,No
2017/08/14,18:10,0.345,0.211,0.342,0.320,0.313,0.170,0.109,northeast,1.3,No
2017/08/14,18:20,0.342,0.212,0.345,0.320,0.314,0.168,0.107,north-northeast,1.6,No
2017/08/14,18:30,0.344,0.212,0.342,0.321,0.315,0.170,0.107,north-northeast,1.0,No
2017/08/14,18:40,0.343,0.209,0.341,0.318,0.310,0.168,0.108,north,1.4,No
2017/08/14,18:50,0.340,0.211,0.343,0.320,0.314,0.168,0.107,north-northeast,0.9,No
2017/08/14,19:00,0.343,0.210,0.341,0.320,0.314,0.168,0.106,north-northeast,0.7,No
2017/08/14,19:10,0.343,0.208,0.344,0.317,0.311,0.167,0.107,east-northeast,1.1,No
2017/08/14,19:20,0.339,0.210,0.343,0.320,0.314,0.167,0.106,north-northeast,0.7,No
2017/08/14,19:30,0.344,0.210,0.341,0.318,0.314,0.168,0.106,-,CALM,No
2017/08/14,19:40,0.342,0.210,0.342,0.316,0.310,0.167,0.106,northwest,0.5,No
2017/08/14,19:50,0.338,0.210,0.340,0.321,0.315,0.167,0.105,-,CALM,No
2017/08/14,20:00,0.343,0.209,0.340,0.317,0.314,0.167,0.106,-,CALM,No
2017/08/14,20:10,0.340,0.211,0.343,0.318,0.312,0.166,0.107,north-northwest,1.0,No
2017/08/14,20:20,0.340,0.210,0.340,0.321,0.316,0.168,0.106,north,1.2,No
2017/08/14,20:30,0.344,0.209,0.342,0.318,0.311,0.167,0.106,north,1.6,No
2017/08/14,20:40,0.340,0.210,0.343,0.320,0.313,0.166,0.106,north-northwest,1.9,No
2017/08/14,20:50,0.340,0.208,0.341,0.321,0.314,0.167,0.106,north-northwest,1.1,No
2017/08/14,21:00,0.344,0.210,0.344,0.317,0.312,0.168,0.106,north-northwest,0.9,No
2017/08/14,21:10,0.341,0.209,0.343,0.321,0.311,0.167,0.105,north-northwest,1.4,No
2017/08/14,21:20,0.342,0.208,0.341,0.321,0.315,0.168,0.106,north-northwest,2.2,No
2017/08/14,21:30,0.343,0.210,0.345,0.317,0.311,0.167,0.107,north-northwest,1.5,No
2017/08/14,21:40,0.340,0.208,0.341,0.321,0.311,0.166,0.106,north,1.4,No
2017/08/14,21:50,0.343,0.210,0.343,0.319,0.314,0.167,0.107,north-northwest,1.1,No
2017/08/14,22:00,0.344,0.211,0.345,0.321,0.310,0.167,0.106,north-northwest,1.2,No
2017/08/14,22:10,0.339,0.210,0.341,0.322,0.314,0.167,0.105,north,1.7,No
2017/08/14,22:20,0.345,0.211,0.345,0.319,0.313,0.168,0.106,north,1.2,No
2017/08/14,22:30,0.343,0.210,0.342,0.320,0.311,0.168,0.106,north-northeast,1.1,No
2017/08/14,22:40,0.339,0.209,0.342,0.322,0.315,0.167,0.105,north-northeast,1.9,No
2017/08/14,22:50,0.344,0.210,0.345,0.319,0.313,0.167,0.107,north-northwest,1.9,No
2017/08/14,23:00,0.342,0.209,0.343,0.321,0.310,0.168,0.106,north,2.5,No
2017/08/14,23:10,0.341,0.211,0.342,0.320,0.314,0.167,0.106,north,1.6,No
2017/08/14,23:20,0.345,0.211,0.345,0.318,0.314,0.168,0.106,north,1.4,No
2017/08/14,23:30,0.342,0.210,0.342,0.323,0.311,0.167,0.105,north,2.3,No
2017/08/14,23:40,0.341,0.211,0.343,0.321,0.317,0.168,0.107,north,1.8,No
2017/08/14,23:50,0.344,0.211,0.343,0.319,0.313,0.169,0.106,north,1.9,No
